Location: State Camp
(41.2367°N, 77.7828°W)
Time: 10:22:31
(UTC-04:00)

Amateur Radio Satellites - All Passes

Search period start: 02 August 2015 09:52
Search period end: 03 August 2015 09:52
Location: State Camp, 41.2367°N, 77.7828°W

Satellite Date Start Highest point End Downlink Frequencies (MHz)
Time Altitude Azimuth
AUBIESAT-1 02 Aug 10:00:52 10:04:55 70° 254° (WSW) 10:09:20 437.475
TIGRISAT 02 Aug 10:02:55 10:06:16 22° 67° (ENE) 10:09:46 435.000
ANTELSAT 02 Aug 10:05:03 10:08:34 25° 68° (ENE) 10:12:14 437.575/2403.000
PCSat 02 Aug 10:05:38 10:10:57 56° 304° (WNW) 10:16:18 145.827
Cosmos 2499 02 Aug 10:13:13 10:18:43 20° 299° (WNW) 10:24:11 435.465 / 435.565
BEESAT 3 02 Aug 10:13:18 10:14:07 10° 251° (WSW) 10:14:42 437.485
ZACube-1 02 Aug 10:35:10 10:39:22 36° 96° (E) 10:43:39 437.345
COMPASS 1 02 Aug 10:36:29 10:40:36 49° 286° (WNW) 10:44:38 437.405
POLYITAN 1 02 Aug 10:37:53 10:41:00 21° 68° (ENE) 10:44:14 437.675
BUGSAT 1 02 Aug 10:52:24 10:55:04 18° 67° (ENE) 10:57:50 437.445
YUBILEINY 02 Aug 10:53:13 11:00:47 32° 68° (ENE) 11:08:33 435.215
POPSAT HIP 1 02 Aug 10:53:50 10:57:29 30° 70° (ENE) 11:01:11 437.405
SEEDS 02 Aug 10:54:00 10:57:36 26° 290° (WNW) 11:01:05 437.485
DELFI C3 02 Aug 10:54:08 10:58:10 63° 101° (E) 11:02:10 145.870
UNISAT 6 02 Aug 10:55:31 10:59:52 85° 77° (ENE) 11:04:22 437.425
FUNcube-1 02 Aug 10:56:06 11:00:36 60° 100° (E) 11:05:08 145.935
CINEMA 3 02 Aug 10:57:17 11:01:40 39° 288° (WNW) 11:06:10 145.822/145.860
DOVE 4 02 Aug 10:57:43 11:01:04 19° 292° (WNW) 11:04:25 437.250
CUTE 1.7 + AOD 2 02 Aug 10:59:15 11:02:24 20° 293° (WNW) 11:05:26 437.475
UWE-3 02 Aug 11:01:33 11:06:11 89° 273° (W) 11:10:52 435.000/436.395/437.385
QB50P2 02 Aug 11:01:34 11:05:26 38° 72° (ENE) 11:09:22 145.880/145.840
Oscar 11 02 Aug 11:07:00 11:11:20 63° 285° (WNW) 11:15:37 145.826/435.025
SO-50 02 Aug 11:08:00 11:11:51 23° 318° (NW) 11:15:42 436.795
HO-68 02 Aug 11:08:05 11:14:36 37° 296° (WNW) 11:21:00 435.675
CANX-2 02 Aug 11:08:25 11:10:54 15° 295° (WNW) 11:13:12 2200.000
UKube-1 02 Aug 11:09:14 11:12:20 20° 93° (E) 11:15:34 .
M-CUBED/EXP-1 PRIME 02 Aug 11:10:55 11:12:07 11° 269° (W) 11:13:05 437.505
HUMSAT D 02 Aug 11:11:53 11:15:53 36° 97° (E) 11:19:53 437.325/437.525
O/OREOS (USA 219) 02 Aug 11:12:37 11:16:57 40° 62° (ENE) 11:21:18 437.305
AIST 2 02 Aug 11:14:52 11:17:14 14° 249° (WSW) 11:19:25 435.215
AAUSAT CUBESAT 2 02 Aug 11:17:31 11:20:48 21° 292° (WNW) 11:23:56 437.432
CUBEBUG 2 02 Aug 11:19:52 11:24:19 46° 287° (WNW) 11:28:51 437.445
AISAT 02 Aug 11:19:59 11:22:56 18° 92° (E) 11:26:01 437.250
DUCHIFAT 1 02 Aug 11:24:22 11:28:30 65° 75° (ENE) 11:32:39 145.980
QB50P1 02 Aug 11:28:35 11:32:46 76° 76° (ENE) 11:36:59 145.935-145.965
Cosmos 2491 02 Aug 11:29:00 11:35:29 25° 83° (E) 11:42:18 435.465 / 435.565
NANOSAT C BR1 02 Aug 11:29:17 11:33:28 76° 76° (ENE) 11:37:40 145.865
CUBEBUG 1 02 Aug 11:31:04 11:32:53 13° 89° (E) 11:34:55 437.445
DX 1 02 Aug 11:38:32 11:42:42 46° 99° (E) 11:46:53 434.975-435.025
TIGRISAT 02 Aug 11:38:54 11:42:51 33° 264° (W) 11:46:52 435.000
ANTELSAT 02 Aug 11:41:22 11:45:14 30° 265° (W) 11:49:10 437.575/2403.000
PCSat 02 Aug 11:53:54 11:55:42 11° 326° (NW) 11:57:17 145.827
VELOX 1 02 Aug 11:57:42 12:01:54 43° 99° (E) 12:06:07 145.980
ZACube-1 02 Aug 12:11:57 12:15:33 23° 292° (WNW) 12:19:03 437.345
POLYITAN 1 02 Aug 12:12:55 12:16:44 33° 264° (W) 12:20:32 437.675
50 SAT 02 Aug 12:13:56 12:17:56 87° 100° (E) 12:21:54 437.505
ESTCUBE 1 02 Aug 12:14:26 12:18:46 47° 99° (E) 12:23:06 437.505/2401.250
AIST 1 02 Aug 12:18:33 12:22:49 59° 95° (E) 12:27:06
BUGSAT 1 02 Aug 12:26:32 12:30:17 36° 262° (W) 12:34:02 437.445
POPSAT HIP 1 02 Aug 12:30:03 12:33:24 22° 266° (W) 12:36:40 437.405
DELFI C3 02 Aug 12:31:25 12:32:45 11° 296° (WNW) 12:33:53 145.870
FUNcube-1 02 Aug 12:33:53 12:36:30 15° 295° (WNW) 12:38:55 145.935
QB50P2 02 Aug 12:38:35 12:41:31 18° 268° (W) 12:44:19 145.880/145.840
UWE-3 02 Aug 12:41:32 12:42:05 10° 298° (WNW) 12:42:22 435.000/436.395/437.385
UKube-1 02 Aug 12:44:38 12:48:37 36° 289° (WNW) 12:52:32 .
HUMSAT D 02 Aug 12:48:08 12:51:23 21° 292° (WNW) 12:54:33 437.325/437.525
YUBILEINY 02 Aug 12:49:34 12:58:10 58° 269° (W) 13:06:41 435.215
O/OREOS (USA 219) 02 Aug 12:52:44 12:56:08 20° 258° (WSW) 12:59:23 437.305
AISAT 02 Aug 12:55:34 12:59:44 41° 288° (WNW) 13:03:53 437.250
DUCHIFAT 1 02 Aug 13:04:10 13:04:50 10° 272° (W) 13:05:13 145.980
CUBEBUG 1 02 Aug 13:05:25 13:09:40 56° 286° (WNW) 13:13:54 437.445
DX 1 02 Aug 13:15:47 13:18:38 17° 295° (WNW) 13:21:20 434.975-435.025
Oscar 19 02 Aug 13:16:04 13:20:51 43° 70° (ENE) 13:25:43 437.125/150
Cosmos 2491 02 Aug 13:22:56 13:31:41 69° 281° (W) 13:40:25 435.465 / 435.565
Cosmos 2504 02 Aug 13:30:08 13:37:51 39° 72° (ENE) 13:45:51 435.465 / 435.565
VELOX 1 02 Aug 13:35:07 13:38:10 18° 294° (WNW) 13:41:05 145.980
SPROUT 02 Aug 13:36:01 13:40:20 86° 287° (WNW) 13:44:39 437.525
JAS-2 02 Aug 13:36:43 13:38:29 11° 51° (NE) 13:40:42 435.910
TISAT 1 02 Aug 13:42:24 13:46:37 67° 101° (ESE) 13:50:49 437.305
SWISSCUBE 02 Aug 13:43:06 13:44:49 12° 88° (E) 13:46:48 437.505
ESTCUBE 1 02 Aug 13:52:18 13:55:19 17° 295° (WNW) 13:58:10 437.505/2401.250
AIST 1 02 Aug 13:59:07 14:00:58 12° 293° (WNW) 14:02:36
ITUPSAT 1 02 Aug 14:03:34 14:06:46 18° 91° (E) 14:10:07 437.325
AO-7 02 Aug 14:13:29 14:18:40 19° 51° (NE) 14:24:12 29.400- 29.500
Gurwin Techsat 1B 02 Aug 14:25:54 14:31:06 59° 73° (ENE) 14:36:21 435.225
ITAMSAT 1 02 Aug 14:39:45 14:44:56 71° 75° (ENE) 14:50:09 435.822/435.867
Oscar 19 02 Aug 14:56:24 15:00:26 23° 268° (W) 15:04:22 437.125/150
BEESAT 02 Aug 14:57:40 15:02:26 67° 101° (E) 15:07:11 436.000
JAS-2 02 Aug 15:16:03 15:22:04 62° 71° (ENE) 15:28:59 435.910
SWISSCUBE 02 Aug 15:18:30 15:23:16 70° 285° (WNW) 15:27:59 437.505
TISAT 1 02 Aug 15:20:21 15:21:53 12° 296° (WNW) 15:23:13 437.305
DANDE 02 Aug 15:21:25 15:24:59 35° 78° (ENE) 15:29:41 436.750
Cosmos 2504 02 Aug 15:22:13 15:30:13 47° 271° (W) 15:38:15 435.465 / 435.565
Cosmos 2491 02 Aug 15:26:18 15:30:39 14° 305° (NW) 15:34:24 435.465 / 435.565
KKS-1 02 Aug 15:26:57 15:30:23 22° 93° (E) 15:33:56 437.445
CUSAT 1 02 Aug 15:30:40 15:34:58 75° 80° (E) 15:40:44 437.405
HORYU 2 02 Aug 15:31:24 15:35:13 29° 69° (ENE) 15:39:08 437.375
GONETS M04 02 Aug 15:37:01 15:40:32 13° 55° (NE) 15:44:41
ITUPSAT 1 02 Aug 15:40:21 15:44:57 47° 288° (WNW) 15:49:30 437.325
AO-7 02 Aug 16:01:58 16:10:20 79° 70° (ENE) 16:18:44 29.400- 29.500
Gurwin Techsat 1B 02 Aug 16:08:00 16:11:34 17° 270° (W) 16:14:55 435.225
SO-50 02 Aug 16:19:41 16:20:53 11° 30° (NNE) 16:22:16 436.795
ITAMSAT 1 02 Aug 16:22:18 16:25:04 14° 272° (W) 16:27:32 435.822/435.867
MOZHAYETS 4 02 Aug 16:29:21 16:31:23 13° 88° (E) 16:33:38
STARS 02 Aug 16:32:02 16:36:27 68° 102° (ESE) 16:40:52 437.465
BEESAT 02 Aug 16:37:09 16:39:48 14° 297° (WNW) 16:42:13 436.000
KKS-1 02 Aug 17:03:04 17:07:07 34° 290° (WNW) 17:11:08 437.445
JAS-2 02 Aug 17:03:06 17:07:53 22° 273° (W) 17:12:53 435.910
DANDE 02 Aug 17:05:08 17:08:05 18° 264° (W) 17:11:25 436.750
Cubesat XI-IV 02 Aug 17:05:39 17:07:55 13° 60° (ENE) 17:10:27 437.490
HORYU 2 02 Aug 17:08:06 17:11:51 26° 265° (W) 17:15:34 437.375
PCSat 02 Aug 17:10:56 17:14:51 20° 44° (NE) 17:18:53 145.827
CUSAT 1 02 Aug 17:16:09 17:17:31 11° 267° (W) 17:18:37 437.405
GONETS M04 02 Aug 17:30:50 17:39:32 68° 79° (ENE) 17:48:15
VERMONT LUNAR 02 Aug 17:48:31 17:51:00 21° 154° (SSE) 17:53:30 437.305
AO-7 02 Aug 17:57:47 18:04:06 22° 270° (W) 18:10:02 29.400- 29.500
SO-50 02 Aug 17:57:50 18:02:41 51° 52° (NE) 18:07:25 436.795
CUTE-I 02 Aug 17:58:03 18:02:54 37° 69° (ENE) 18:07:50 437.470
MOZHAYETS 4 02 Aug 18:04:31 18:09:06 61° 286° (WNW) 18:13:38
Cosmos 2499 02 Aug 18:07:41 18:15:10 31° 68° (ENE) 18:22:55 435.465 / 435.565
STARS 02 Aug 18:10:25 18:12:24 13° 297° (WNW) 18:14:11 437.465
CUBESAT XI-V 02 Aug 18:26:44 18:29:58 19° 91° (E) 18:33:19 437.345
Cubesat XI-IV 02 Aug 18:41:58 18:47:21 89° 251° (WSW) 18:52:46 437.490
PCSat 02 Aug 18:53:27 18:58:53 71° 243° (WSW) 19:04:15 145.827
BRITE-PL 02 Aug 19:05:58 19:08:45 17° 68° (ENE) 19:11:36 437.365/2234.400
GOMX 1 02 Aug 19:10:33 19:11:25 11° 64° (ENE) 19:12:29 467.674
VERMONT LUNAR 02 Aug 19:24:16 19:27:25 64° 169° (SSE) 19:30:34 437.305
GONETS M04 02 Aug 19:28:52 19:35:44 26° 277° (W) 19:42:17
STRAND 1 02 Aug 19:34:32 19:38:54 29° 95° (E) 19:43:19 437.568
CUTE-I 02 Aug 19:38:27 19:43:05 28° 266° (W) 19:47:37 437.470
SO-50 02 Aug 19:39:11 19:42:53 21° 249° (WSW) 19:46:24 436.795
HO-68 02 Aug 19:49:07 19:55:16 33° 63° (ENE) 20:01:33 435.675
COMPASS 1 02 Aug 19:55:31 19:56:10 10° 63° (ENE) 19:57:02 437.405
Cosmos 2499 02 Aug 20:00:17 20:08:55 61° 268° (W) 20:17:33 435.465 / 435.565
CUBESAT XI-V 02 Aug 20:03:17 20:07:38 41° 288° (WNW) 20:11:54 437.345
PHONESAT 2.4 02 Aug 20:04:52 20:08:01 32° 157° (SSE) 20:11:12 2401.200-2431.200
SEEDS 02 Aug 20:10:45 20:13:46 20° 68° (ENE) 20:16:56 437.485
CUTE 1.7 + AOD 2 02 Aug 20:15:43 20:19:18 27° 70° (ENE) 20:22:59 437.475
CINEMA 3 02 Aug 20:23:35 20:26:22 18° 66° (ENE) 20:29:18 145.822/145.860
CANX-2 02 Aug 20:24:00 20:27:55 37° 72° (ENE) 20:31:54 2200.000
RS-15 02 Aug 20:25:07 20:33:33 29° 105° (ESE) 20:42:36 29.354- 29.394
DOVE 4 02 Aug 20:25:22 20:29:15 42° 73° (ENE) 20:33:13 437.250
PRISM 02 Aug 20:25:27 20:29:35 81° 102° (ESE) 20:33:40 437.425
Cubesat XI-IV 02 Aug 20:27:06 20:28:20 10° 274° (W) 20:29:10 437.490
AAUSAT CUBESAT 2 02 Aug 20:32:37 20:35:51 23° 69° (ENE) 20:39:12 437.432
BRITE-PL 02 Aug 20:42:59 20:47:06 39° 262° (W) 20:51:03 437.365/2234.400
CUBEBUG 2 02 Aug 20:43:46 20:45:56 14° 65° (ENE) 20:48:18 437.445
GOMX 1 02 Aug 20:44:55 20:49:06 66° 258° (WSW) 20:53:16 467.674
VERMONT LUNAR 02 Aug 21:00:54 21:04:05 75° 186° (S) 21:07:15 437.305
STRAND 1 02 Aug 21:13:34 21:18:08 33° 292° (WNW) 21:22:39 437.568
ISS 02 Aug 21:16:14 21:19:29 88° 151° (SSE) 21:22:45 145.825
COMPASS 1 02 Aug 21:27:03 21:31:16 75° 258° (WSW) 21:35:32 437.405
ZACube-1 02 Aug 21:31:33 21:35:05 27° 69° (ENE) 21:38:46 437.345
HO-68 02 Aug 21:35:55 21:42:48 49° 261° (W) 21:49:41 435.675
Cosmos 2491 02 Aug 21:40:20 21:42:37 11° 52° (NE) 21:45:36 435.465 / 435.565
DELFI C3 02 Aug 21:41:05 21:44:50 37° 72° (ENE) 21:48:38 145.870
PHONESAT 2.4 02 Aug 21:42:16 21:45:47 75° 174° (S) 21:49:17 2401.200-2431.200
SEEDS 02 Aug 21:45:24 21:49:21 36° 264° (W) 21:53:17 437.485
CUTE 1.7 + AOD 2 02 Aug 21:51:34 21:55:11 26° 266° (W) 21:58:46 437.475
FUNcube-1 02 Aug 21:51:55 21:55:54 44° 72° (ENE) 22:00:00 145.935
Cosmos 2499 02 Aug 21:58:31 22:00:34 11° 285° (WNW) 22:01:51 435.465 / 435.565
UWE-3 02 Aug 21:58:40 22:02:50 72° 76° (ENE) 22:07:09 435.000/436.395/437.385
CINEMA 3 02 Aug 21:59:27 22:03:19 37° 263° (W) 22:07:16 145.822/145.860
CANX-2 02 Aug 22:00:54 22:04:00 19° 268° (W) 22:07:00 2200.000
Oscar 11 02 Aug 22:01:20 22:05:41 83° 260° (W) 22:10:04 145.826/435.025
HUMSAT D 02 Aug 22:03:54 22:07:18 25° 69° (ENE) 22:10:48 437.325/437.525
UKube-1 02 Aug 22:04:30 22:07:21 18° 66° (ENE) 22:10:22 .
DOVE 4 02 Aug 22:04:52 22:07:20 15° 270° (W) 22:09:40 437.250
AAUSAT CUBESAT 2 02 Aug 22:07:34 22:11:19 30° 264° (W) 22:15:03 437.432
CUBEBUG 2 02 Aug 22:18:07 22:22:12 52° 261° (W) 22:26:24 437.445
AISAT 02 Aug 22:18:15 22:21:02 17° 66° (ENE) 22:23:57 437.250
AIST 1 02 Aug 22:27:00 22:29:19 15° 68° (ENE) 22:31:48
BEESAT 3 02 Aug 22:27:25 22:28:55 12° 110° (ESE) 22:30:38 437.485
CUBEBUG 1 02 Aug 22:28:09 22:29:39 12° 63° (ENE) 22:31:21 437.445
RS-15 02 Aug 22:33:58 22:44:55 77° 306° (NW) 22:56:18 29.354- 29.394
DX 1 02 Aug 22:34:04 22:38:06 40° 71° (ENE) 22:42:11 434.975-435.025
VERMONT LUNAR 02 Aug 22:37:45 22:40:36 30° 202° (SSW) 22:43:25 437.305
M-CUBED/EXP-1 PRIME 02 Aug 22:48:01 22:52:46 56° 105° (ESE) 22:57:20 437.505
UNISAT 6 02 Aug 22:48:10 22:51:28 19° 91° (E) 22:54:54 437.425
ISS 02 Aug 22:53:47 22:56:17 20° 342° (NNW) 22:58:45 145.825
VELOX 1 02 Aug 22:55:13 22:59:18 39° 71° (ENE) 23:03:25 145.980
50 SAT 02 Aug 22:57:27 23:01:10 45° 73° (ENE) 23:04:57 437.505
ZACube-1 02 Aug 23:07:55 23:11:26 25° 266° (W) 23:14:57 437.345
DUCHIFAT 1 02 Aug 23:11:54 23:12:24 10° 88° (E) 23:13:12 145.980
ESTCUBE 1 02 Aug 23:13:54 23:18:11 44° 72° (ENE) 23:22:31 437.505/2401.250
QB50P1 02 Aug 23:15:32 23:17:13 12° 89° (E) 23:19:09 145.935-145.965
AUBIESAT-1 02 Aug 23:15:37 23:20:24 88° 293° (WNW) 23:24:59 437.475
NANOSAT C BR1 02 Aug 23:16:01 23:17:41 12° 89° (E) 23:19:34 145.865
DELFI C3 02 Aug 23:17:20 23:20:05 17° 269° (W) 23:22:42 145.870
PHONESAT 2.4 02 Aug 23:20:12 23:23:42 67° 190° (S) 23:27:11 2401.200-2431.200
BEESAT 2 02 Aug 23:25:26 23:29:16 40° 116° (ESE) 23:33:09 435.950
TIGRISAT 02 Aug 23:29:49 23:34:23 49° 99° (E) 23:38:58 435.000
FUNcube-1 02 Aug 23:29:56 23:32:31 15° 270° (W) 23:35:00 145.935
ANTELSAT 02 Aug 23:32:23 23:37:01 55° 99° (E) 23:41:39 437.575/2403.000
Cosmos 2491 02 Aug 23:33:18 23:41:54 61° 77° (ENE) 23:50:30 435.465 / 435.565
AIST 2 02 Aug 23:35:35 23:36:48 11° 109° (ESE) 23:38:15 435.215
UKube-1 02 Aug 23:39:06 23:43:12 42° 261° (W) 23:47:19 .
HUMSAT D 02 Aug 23:39:26 23:42:58 26° 266° (W) 23:46:31 437.325/437.525
AISAT 02 Aug 23:53:02 23:57:17 46° 261° (W) 00:01:32 437.250
YUBILEINY 02 Aug 23:54:31 00:02:03 36° 86° (E) 00:09:50 435.215
POLYITAN 1 02 Aug 23:57:49 00:01:49 38° 97° (E) 00:05:50 437.675
CUBEBUG 1 03 Aug 00:01:10 00:05:30 69° 258° (WSW) 00:09:51 437.445
BEESAT 3 03 Aug 00:02:22 00:06:24 62° 305° (NW) 00:10:28 437.485
AIST 1 03 Aug 00:03:13 00:07:18 45° 267° (W) 00:11:21
BUGSAT 1 03 Aug 00:08:29 00:12:02 29° 96° (E) 00:15:39 437.445
DX 1 03 Aug 00:11:30 00:14:34 18° 268° (W) 00:17:28 434.975-435.025
POPSAT HIP 1 03 Aug 00:13:58 00:18:10 57° 100° (E) 00:22:24 437.405
QB50P2 03 Aug 00:22:04 00:26:22 74° 102° (ESE) 00:30:38 145.880/145.840
M-CUBED/EXP-1 PRIME 03 Aug 00:23:44 00:27:06 19° 301° (WNW) 00:30:16 437.505
UNISAT 6 03 Aug 00:24:00 00:28:28 44° 288° (WNW) 00:32:55 437.425
SPROUT 03 Aug 00:29:51 00:34:06 72° 76° (ENE) 00:38:23 437.525
ISS 03 Aug 00:31:56 00:33:38 13° 2° (N) 00:35:21 145.825
VELOX 1 03 Aug 00:32:51 00:36:02 19° 268° (W) 00:39:06 145.980
50 SAT 03 Aug 00:34:10 00:36:04 13° 271° (W) 00:37:45 437.505
TISAT 1 03 Aug 00:34:21 00:38:22 48° 73° (ENE) 00:42:25 437.305
DUCHIFAT 1 03 Aug 00:44:30 00:48:44 67° 285° (WNW) 00:52:56 145.980
QB50P1 03 Aug 00:49:19 00:53:30 56° 286° (WNW) 00:57:41 145.935-145.965
SWISSCUBE 03 Aug 00:49:29 00:52:13 16° 63° (ENE) 00:55:08 437.505
NANOSAT C BR1 03 Aug 00:49:44 00:53:55 56° 286° (WNW) 00:58:06 145.865
RS-15 03 Aug 00:50:19 00:59:39 29° 334° (NNW) 01:09:09 29.354- 29.394
ESTCUBE 1 03 Aug 00:52:09 00:55:18 18° 269° (W) 00:58:19 437.505/2401.250
AUBIESAT-1 03 Aug 00:52:34 00:54:23 12° 304° (NW) 00:55:59 437.475
PHONESAT 2.4 03 Aug 00:58:26 01:01:22 24° 206° (SSW) 01:04:15 2401.200-2431.200
BEESAT 2 03 Aug 01:04:12 01:07:28 22° 315° (NW) 01:10:42 435.950
TIGRISAT 03 Aug 01:07:31 01:10:47 18° 294° (WNW) 01:13:54 435.000
ANTELSAT 03 Aug 01:10:20 01:13:23 17° 295° (WNW) 01:16:17 437.575/2403.000
ITUPSAT 1 03 Aug 01:10:23 01:14:01 22° 66° (ENE) 01:17:47 437.325
AIST 2 03 Aug 01:10:38 01:14:52 71° 304° (WNW) 01:19:09 435.215
O/OREOS (USA 219) 03 Aug 01:24:47 01:29:03 46° 107° (ESE) 01:33:23 437.305
Oscar 19 03 Aug 01:28:52 01:31:41 15° 89° (E) 01:34:45 437.125/150
Cosmos 2491 03 Aug 01:31:04 01:38:16 29° 276° (W) 01:45:11 435.465 / 435.565
POLYITAN 1 03 Aug 01:34:21 01:37:29 19° 293° (WNW) 01:40:29 437.675
BUGSAT 1 03 Aug 01:44:09 01:47:24 22° 291° (WNW) 01:50:33 437.445
YUBILEINY 03 Aug 01:50:16 01:58:40 50° 286° (WNW) 02:07:06 435.215
POPSAT HIP 1 03 Aug 01:51:25 01:53:37 14° 295° (WNW) 01:55:39 437.405
QB50P2 03 Aug 02:00:33 02:01:43 11° 297° (WNW) 02:02:40 145.880/145.840
Cosmos 2504 03 Aug 02:02:14 02:07:43 25° 83° (E) 02:13:45 435.465 / 435.565
BEESAT 03 Aug 02:03:56 02:08:42 76° 75° (ENE) 02:13:31 436.000
ISS 03 Aug 02:08:10 02:10:55 25° 22° (NNE) 02:13:41 145.825
TISAT 1 03 Aug 02:12:12 02:14:27 14° 270° (W) 02:16:31 437.305
SWISSCUBE 03 Aug 02:24:52 02:29:37 61° 259° (W) 02:34:24 437.505
KKS-1 03 Aug 02:25:28 02:28:43 21° 67° (ENE) 02:32:06 437.445
JAS-2 03 Aug 02:30:20 02:30:34 10° 79° (E) 02:31:33 435.910
Gurwin Techsat 1B 03 Aug 02:42:46 02:46:55 23° 92° (E) 02:51:10 435.225
ITUPSAT 1 03 Aug 02:47:08 02:51:41 41° 262° (W) 02:56:14 437.325
AIST 2 03 Aug 02:52:59 02:54:16 11° 324° (NW) 02:55:25 435.215
ITAMSAT 1 03 Aug 02:53:15 02:57:25 25° 93° (E) 03:01:41 435.822/435.867
O/OREOS (USA 219) 03 Aug 03:05:32 03:08:46 19° 306° (NW) 03:11:55 437.305
Oscar 19 03 Aug 03:06:26 03:11:35 65° 287° (WNW) 03:16:43 437.125/150
RS-15 03 Aug 03:08:56 03:17:14 22° 9° (N) 03:25:55 29.354- 29.394
STARS 03 Aug 03:28:44 03:33:00 59° 74° (ENE) 03:37:20 437.465
MOZHAYETS 4 03 Aug 03:31:44 03:33:56 14° 64° (ENE) 03:36:22
ISS 03 Aug 03:44:20 03:47:33 53° 219° (SW) 03:50:43 145.825
BEESAT 03 Aug 03:45:39 03:47:12 11° 273° (W) 03:48:26 436.000
Cosmos 2504 03 Aug 03:52:18 03:59:21 58° 283° (WNW) 04:06:56 435.465 / 435.565
KKS-1 03 Aug 04:01:03 04:05:09 36° 263° (W) 04:09:15 437.445
AO-7 03 Aug 04:04:38 04:11:04 25° 92° (E) 04:17:47 29.400- 29.500
JAS-2 03 Aug 04:09:34 04:17:21 61° 99° (E) 04:24:57 435.910
Gurwin Techsat 1B 03 Aug 04:22:04 04:27:07 44° 290° (WNW) 04:32:07 435.225
ITAMSAT 1 03 Aug 04:32:16 04:37:05 40° 291° (WNW) 04:41:51 435.822/435.867
DANDE 03 Aug 04:35:09 04:38:04 35° 98° (E) 04:40:35 436.750
CUSAT 1 03 Aug 04:40:18 04:43:07 88° 281° (W) 04:45:43 437.405
GONETS M04 03 Aug 04:40:48 04:44:27 14° 77° (ENE) 04:48:45
HORYU 2 03 Aug 04:58:19 05:02:47 59° 101° (E) 05:07:13 437.375
MOZHAYETS 4 03 Aug 05:06:02 05:10:39 67° 259° (WSW) 05:15:18
STARS 03 Aug 05:07:57 05:09:55 12° 271° (W) 05:11:38 437.465
RS-15 03 Aug 05:22:53 05:33:50 44° 41° (NE) 05:45:20 29.354- 29.394
CUBESAT XI-V 03 Aug 05:30:20 05:33:40 20° 67° (ENE) 05:37:07 437.345
JAS-2 03 Aug 05:55:14 06:01:56 31° 297° (WNW) 06:08:25 435.910
AO-7 03 Aug 05:56:21 06:04:39 70° 291° (WNW) 06:12:52 29.400- 29.500
CUTE-I 03 Aug 06:16:34 06:19:09 14° 88° (E) 06:22:02 437.470
GONETS M04 03 Aug 06:31:22 06:40:01 78° 95° (E) 06:48:44
HORYU 2 03 Aug 06:36:25 06:38:58 15° 296° (WNW) 06:41:21 437.375
BEESAT 3 03 Aug 06:45:12 06:46:10 11° 37° (NE) 06:47:16 437.485
Cosmos 2499 03 Aug 06:46:28 06:51:33 21° 81° (E) 06:57:11 435.465 / 435.565
STRAND 1 03 Aug 06:50:13 06:55:01 42° 70° (ENE) 06:59:53 437.568
Cubesat XI-IV 03 Aug 06:59:34 07:04:27 36° 97° (E) 07:09:21 437.490
CUBESAT XI-V 03 Aug 07:06:23 07:10:50 43° 262° (W) 07:15:17 437.345
PRISM 03 Aug 07:15:05 07:19:11 58° 74° (ENE) 07:23:19 437.425
RS-15 03 Aug 07:35:25 07:47:04 65° 244° (WSW) 07:59:01 29.354- 29.394
BEESAT 2 03 Aug 07:44:33 07:48:01 26° 47° (NE) 07:51:28 435.950
AO-7 03 Aug 07:51:12 07:56:08 17° 311° (NW) 08:00:42 29.400- 29.500
CUTE-I 03 Aug 07:54:34 07:59:53 72° 287° (WNW) 08:05:10 437.470
PCSat 03 Aug 07:54:36 07:57:19 15° 105° (ESE) 08:00:19 145.827
AIST 2 03 Aug 07:56:02 07:57:11 11° 36° (NE) 07:58:30 435.215
SO-50 03 Aug 08:13:56 08:16:42 16° 110° (ESE) 08:19:44 436.795
BEESAT 3 03 Aug 08:20:47 08:24:51 77° 56° (NE) 08:28:50 437.485
DOVE 4 03 Aug 08:25:04 08:27:08 13° 89° (E) 08:29:30 437.250
STRAND 1 03 Aug 08:30:19 08:34:26 23° 267° (W) 08:38:26 437.568
AUBIESAT-1 03 Aug 08:30:54 08:32:48 13° 56° (ENE) 08:34:57 437.475
GONETS M04 03 Aug 08:31:17 08:38:00 23° 297° (WNW) 08:44:22
Cosmos 2499 03 Aug 08:36:23 08:43:49 73° 280° (W) 08:51:55 435.465 / 435.565
Cubesat XI-IV 03 Aug 08:39:53 08:44:28 29° 293° (WNW) 08:48:55 437.490
GOMX 1 03 Aug 08:45:48 08:49:59 34° 97° (E) 08:54:28 467.674
BRITE-PL 03 Aug 08:46:19 08:50:41 57° 100° (E) 08:55:25 437.365/2234.400
PRISM 03 Aug 08:53:25 08:55:03 12° 271° (W) 08:56:26 437.425
HO-68 03 Aug 09:03:33 09:09:52 33° 95° (E) 09:16:17 435.675
COMPASS 1 03 Aug 09:11:28 09:14:15 17° 91° (E) 09:17:09 437.405
BEESAT 2 03 Aug 09:22:29 09:26:04 30° 245° (WSW) 09:29:33 435.950
SEEDS 03 Aug 09:29:29 09:33:25 35° 97° (E) 09:37:20 437.485
AIST 2 03 Aug 09:32:22 09:36:35 74° 56° (ENE) 09:40:42 435.215
PCSat 03 Aug 09:34:45 09:40:09 76° 300° (WNW) 09:45:37 145.827
M-CUBED/EXP-1 PRIME 03 Aug 09:35:42 09:39:46 68° 70° (ENE) 09:44:13 437.505
CUTE 1.7 + AOD 2 03 Aug 09:35:55 09:40:08 53° 99° (E) 09:44:20 437.475
